When you browse on this site, cookies collect data to enhance your experience and personalize the content and advertising you see.
Visit our Privacy Policy to learn more. By continuing to use the site, you agree to this use of cookies and data.

Hourly Weather Quito

Today, 25 September, Friday

Time Temperature Precipitation Wind Pressure Humidity
00:00 +20°C° 0 mm 1 mps 623 mmHg 27%
01:00 +19°C° 0 mm 1 mps 623 mmHg 29%
02:00 +18°C° 0 mm 1 mps 623 mmHg 30%
03:00 +18°C° 0 mm 1 mps 622 mmHg 31%
04:00 +16°C° 0 mm 1 mps 622 mmHg 33%
05:00 +19°C° 0 mm 1 mps 623 mmHg 33%
06:00 +18°C° 0 mm 0 mps 624 mmHg 34%
07:00 +20°C° 0 mm 0 mps 625 mmHg 30%
08:00 +24°C° 0 mm 1 mps 625 mmHg 26%
09:00 +27°C° 0 mm 2 mps 626 mmHg 21%
10:00 +30°C° 0 mm 4 mps 626 mmHg 16%
11:00 +30°C° 0 mm 3 mps 625 mmHg 15%
12:00 +31°C° 0 mm 3 mps 625 mmHg 14%
13:00 +33°C° 0 mm 3 mps 624 mmHg 13%
14:00 +33°C° 0 mm 3 mps 623 mmHg 13%
15:00 +32°C° 0 mm 2 mps 623 mmHg 12%
16:00 +32°C° 0 mm 2 mps 622 mmHg 12%
17:00 +29°C° 0 mm 2 mps 622 mmHg 15%
18:00 +27°C° 0 mm 2 mps 622 mmHg 17%
19:00 +24°C° 0 mm 2 mps 621 mmHg 19%
20:00 +24°C° 0 mm 1 mps 622 mmHg 20%
21:00 +23°C° 0 mm 1 mps 622 mmHg 20%
22:00 +23°C° 0 mm 1 mps 622 mmHg 20%
23:00 +21°C° 0 mm 1 mps 622 mmHg 31%

Tomorrow, 26 September, Saturday

Time Temperature Precipitation Wind Pressure Humidity
00:00 +19°C° 0 mm 2 mps 622 mmHg 42%
01:00 +17°C° 0 mm 2 mps 621 mmHg 53%
02:00 +17°C° 0 mm 2 mps 621 mmHg 58%
03:00 +17°C° 0 mm 2 mps 621 mmHg 62%
04:00 +16°C° 0 mm 3 mps 620 mmHg 67%
05:00 +17°C° 0 mm 2 mps 621 mmHg 61%
06:00 +18°C° 0 mm 2 mps 622 mmHg 55%
07:00 +19°C° 0 mm 2 mps 623 mmHg 50%
08:00 +24°C° 0 mm 2 mps 623 mmHg 41%
09:00 +27°C° 0 mm 2 mps 624 mmHg 32%
10:00 +31°C° 0 mm 2 mps 625 mmHg 23%
11:00 +32°C° 0 mm 2 mps 624 mmHg 19%
12:00 +35°C° 0 mm 2 mps 624 mmHg 16%
13:00 +36°C° 0 mm 2 mps 623 mmHg 13%
14:00 +35°C° 0 mm 2 mps 623 mmHg 14%
15:00 +34°C° 0 mm 3 mps 622 mmHg 14%
16:00 +34°C° 0 mm 3 mps 621 mmHg 15%
17:00 +30°C° 0 mm 2 mps 621 mmHg 19%
18:00 +28°C° 0 mm 2 mps 621 mmHg 22%
19:00 +25°C° 0 mm 2 mps 620 mmHg 26%
20:00 +24°C° 0 mm 2 mps 620 mmHg 30%
21:00 +24°C° 0 mm 3 mps 621 mmHg 33%
22:00 +22°C° 0 mm 3 mps 621 mmHg 37%
23:00 +21°C° 0 mm 4 mps 621 mmHg 42%

Day after tomorrow, 27 September, Sunday

Time Temperature Precipitation Wind Pressure Humidity
00:00 +20°C° 0 mm 4 mps 620 mmHg 47%
01:00 +20°C° 0 mm 5 mps 620 mmHg 52%
02:00 +19°C° 0 mm 4 mps 620 mmHg 55%
03:00 +18°C° 0 mm 3 mps 620 mmHg 59%
04:00 +17°C° 0 mm 2 mps 619 mmHg 62%
05:00 +18°C° 0 mm 3 mps 620 mmHg 57%
06:00 +19°C° 0 mm 3 mps 621 mmHg 53%
07:00 +19°C° 0 mm 4 mps 622 mmHg 48%
08:00 +24°C° 0 mm 3 mps 622 mmHg 38%
09:00 +27°C° 0 mm 3 mps 623 mmHg 27%
10:00 +30°C° 0 mm 3 mps 624 mmHg 17%
11:00 +32°C° 0 mm 2 mps 624 mmHg 15%
12:00 +35°C° 0 mm 1 mps 624 mmHg 13%
13:00 +39°C° 0 mm 1 mps 624 mmHg 11%
14:00 +37°C° 0 mm 2 mps 623 mmHg 12%
15:00 +36°C° 0 mm 3 mps 622 mmHg 13%
16:00 +34°C° 0 mm 4 mps 621 mmHg 13%
17:00 +30°C° 0 mm 3 mps 620 mmHg 17%
18:00 +28°C° 0 mm 3 mps 620 mmHg 21%
19:00 +25°C° 0 mm 2 mps 620 mmHg 24%
20:00 +24°C° 0 mm 2 mps 620 mmHg 28%
21:00 +23°C° 0 mm 2 mps 621 mmHg 32%
22:00 +21°C° 0 mm 3 mps 621 mmHg 35%
23:00 +21°C° 0 mm 3 mps 621 mmHg 42%

28 September, Monday

Time Temperature Precipitation Wind Pressure Humidity
00:00 +20°C° 0 mm 4 mps 621 mmHg 49%
01:00 +19°C° 0 mm 4 mps 621 mmHg 56%
02:00 +18°C° 0 mm 4 mps 620 mmHg 60%
03:00 +17°C° 0 mm 3 mps 620 mmHg 64%
04:00 +17°C° 0 mm 3 mps 620 mmHg 69%
05:00 +18°C° 0 mm 3 mps 621 mmHg 62%
06:00 +19°C° 0 mm 3 mps 622 mmHg 56%
07:00 +20°C° 0 mm 3 mps 622 mmHg 50%
08:00 +24°C° 0 mm 3 mps 623 mmHg 38%
09:00 +28°C° 0 mm 3 mps 624 mmHg 26%
10:00 +31°C° 0 mm 2 mps 625 mmHg 15%
11:00 +34°C° 0 mm 2 mps 625 mmHg 14%
12:00 +35°C° 0 mm 2 mps 624 mmHg 14%
13:00 +37°C° 0 mm 2 mps 623 mmHg 13%
14:00 +36°C° 0 mm 3 mps 623 mmHg 14%
15:00 +35°C° 0 mm 3 mps 622 mmHg 15%
16:00 +34°C° 0 mm 3 mps 622 mmHg 15%
17:00 +31°C° 0 mm 3 mps 621 mmHg 19%
18:00 +28°C° 0 mm 2 mps 621 mmHg 24%
19:00 +25°C° 0 mm 2 mps 621 mmHg 28%
20:00 +25°C° 0 mm 2 mps 621 mmHg 31%
21:00 +24°C° 0 mm 3 mps 622 mmHg 35%
22:00 +22°C° 0 mm 3 mps 622 mmHg 39%
23:00 +21°C° 0 mm 3 mps 622 mmHg 44%

29 September, Tuesday

Time Temperature Precipitation Wind Pressure Humidity
00:00 +20°C° 0 mm 3 mps 622 mmHg 50%
01:00 +19°C° 0 mm 3 mps 621 mmHg 55%
02:00 +18°C° 0 mm 3 mps 621 mmHg 57%
03:00 +18°C° 0 mm 3 mps 621 mmHg 60%
04:00 +17°C° 0 mm 3 mps 621 mmHg 62%
05:00 +18°C° 0 mm 3 mps 622 mmHg 56%
06:00 +19°C° 0 mm 3 mps 622 mmHg 50%
07:00 +20°C° 0 mm 3 mps 623 mmHg 44%
08:00 +25°C° 0 mm 2 mps 624 mmHg 35%
09:00 +30°C° 0 mm 1 mps 625 mmHg 26%
10:00 +34°C° 0 mm 1 mps 626 mmHg 16%
11:00 +34°C° 0 mm 1 mps 626 mmHg 16%
12:00 +35°C° 0 mm 1 mps 625 mmHg 16%
13:00 +36°C° 0 mm 2 mps 624 mmHg 16%
14:00 +35°C° 0 mm 3 mps 623 mmHg 17%
15:00 +34°C° 0 mm 3 mps 622 mmHg 19%
16:00 +33°C° 0 mm 4 mps 622 mmHg 20%
17:00 +30°C° 0 mm 3 mps 622 mmHg 25%
18:00 +28°C° 0 mm 2 mps 621 mmHg 30%
19:00 +25°C° 0 mm 2 mps 621 mmHg 36%
20:00 +24°C° 0 mm 2 mps 621 mmHg 39%
21:00 +24°C° 0 mm 2 mps 622 mmHg 42%
22:00 +22°C° 0 mm 3 mps 622 mmHg 46%
23:00 +21°C° 0 mm 3 mps 622 mmHg 50%

30 September, Wednesday

Time Temperature Precipitation Wind Pressure Humidity
00:00 +20°C° 0 mm 3 mps 621 mmHg 53%
01:00 +19°C° 0 mm 2 mps 621 mmHg 57%
02:00 +19°C° 0 mm 3 mps 621 mmHg 58%
03:00 +19°C° 0 mm 3 mps 621 mmHg 60%
04:00 +18°C° 0 mm 3 mps 621 mmHg 61%
05:00 +19°C° 0 mm 2 mps 621 mmHg 58%
06:00 +20°C° 0 mm 2 mps 622 mmHg 55%
07:00 +22°C° 0 mm 1 mps 622 mmHg 52%
08:00 +25°C° 0 mm 1 mps 623 mmHg 42%
09:00 +28°C° 0 mm 2 mps 624 mmHg 31%
10:00 +31°C° 0 mm 2 mps 625 mmHg 20%
11:00 +34°C° 0 mm 2 mps 624 mmHg 19%
12:00 +35°C° 0 mm 1 mps 624 mmHg 17%
13:00 +37°C° 0 mm 1 mps 624 mmHg 16%
14:00 +35°C° 0 mm 1 mps 623 mmHg 18%
15:00 +33°C° 0 mm 1 mps 622 mmHg 19%
16:00 +32°C° 0 mm 1 mps 620 mmHg 21%
17:00 +29°C° 0 mm 1 mps 620 mmHg 28%
18:00 +26°C° 0 mm 2 mps 620 mmHg 35%
19:00 +24°C° 0 mm 3 mps 619 mmHg 43%
20:00 +22°C° 0 mm 3 mps 620 mmHg 47%
21:00 +21°C° 0 mm 3 mps 620 mmHg 52%
22:00 +21°C° 0 mm 4 mps 621 mmHg 56%
23:00 +20°C° 0 mm 3 mps 621 mmHg 58%
Show more